logo Eve Who10,838,022 Characters
753,442 Corporations
7,910 Alliances

Home Pilots Corporations Alliances Factions Comments FAQ 

alli logocorp logo
Name:Legends Unbound
Ticker:[LEUB]
CEO:Ascorbic
Alliance:Greater D.U.S.K. Coalition
Members:192
Avg. Sec.:1.6
7 Day Delta:3
Activity:Very Active
LinkszKillboard
Dotlan
Description: 
Legends Unbound Corporation
Unbound Legends is a friendly corporation built around the concept of enjoying Eve. Founded by Docgotgame a twitch mmo streamer, who enjoys building mmo communities.
What We Offer
- Ore Buyback Program (Eve-Hr)
- Max Orca Bonuses
- Frequeant Paid Mining Ops
- Alliance and corp pvp ops
- Discord
- Leadership That Has Played since 2003
Goals
- Place Production Complex
- Gear up for new Moon Mining System
- Produce Capital Ships
- Build strong PVP division
- Future Buy in and Payouts on Corp Profits.
Looking to expand out numbers and create a strong mining/indy core for nul-sec space. Please join our recruitment channel to learn more about us. Unbound Recruitment
Diplo contacts: Ascorbic | Xorman | CapTTain Chaos
Recruitment Channel: Unbound Recruitment

comments powered by Disqus
 Name JoinedLeft
char portraitDocgotgamecorp logo2016/11/16 02:182017/04/05 14:38
char portraitDaisuke Reishicorp logo2016/11/16 02:192017/07/23 15:06
char portraitMossco55 Arnollescorp logo2016/11/16 02:19
char portraitDeceiver's Echocorp logo2016/11/16 02:212016/11/19 02:29
char portraitLord Teremuscorp logo2016/11/16 02:262017/01/24 23:47
char portraitRiene Ormandcorp logo2016/11/16 02:302017/01/24 23:47
char portraitPeter-Quill Starlordcorp logo2016/11/16 02:332016/11/27 10:55
char portraitHeisenbird whitecorp logo2016/11/16 02:372016/12/09 05:23
char portraitOsierdan Osicorp logo2016/11/16 17:132017/01/24 23:50
char portraitFarah Hinkencorp logo2016/11/16 17:132016/11/17 13:47
char portraitxblazemasterx Blazecorp logo2016/11/16 17:142017/01/03 21:41
char portraitLogis tix74corp logo2016/11/16 17:142016/11/16 20:03
char portraitBill Galvencorp logo2016/11/16 17:142016/11/21 06:20
char portraitEdon Felancorp logo2016/11/16 17:142017/03/30 19:07
char portraitMotoko Aldentcorp logo2016/11/16 17:152016/12/01 10:19
char portraitOrician Techlabcorp logo2016/11/16 17:152017/01/24 23:52
char portraitDamian Kadocorp logo2016/11/16 17:162017/01/24 23:50
char portraitTheSmoking Mancorp logo2016/11/16 17:172016/11/30 21:04
char portraitMenelaos Tantaloscorp logo2016/11/16 17:172016/12/08 17:52
char portraitEddyson Trentcorp logo2016/11/16 17:172017/01/12 23:35
char portraitvallox2corp logo2016/11/16 17:182016/11/30 21:04
char portraitRosa Auroracorp logo2016/11/16 17:192017/01/24 23:47
char portraitNickrruss Maneocorp logo2016/11/16 17:202016/11/22 09:57
char portraitEldrad1313 Ulthancorp logo2016/11/16 17:202017/03/30 19:07
char portraitSheldy Solkemacorp logo2016/11/16 17:202016/12/09 05:18
char portraitMoe Bukandaracorp logo2016/11/16 17:212017/03/02 15:04
char portraitElflako Arbosacorp logo2016/11/16 17:212016/12/09 05:28
char portraitKilroy McDuffcorp logo2016/11/16 17:242017/01/24 23:51
char portraitPhun Thymecorp logo2016/11/16 17:272017/08/05 02:02
char portraitFatManBig Livecorp logo2016/11/16 17:282016/11/30 20:40
char portraitAlpha Cloneecorp logo2016/11/16 17:302016/12/09 05:24
char portraitBehn Askoldcorp logo2016/11/16 17:302017/01/24 23:47
char portraitKateri Blackfeathercorp logo2016/11/16 17:35
char portraitvirpyrellacorp logo2016/11/16 17:352016/11/28 13:30
char portraitCapTTain Chaoscorp logo2016/11/16 17:37
char portraitTavius Flaviuscorp logo2016/11/16 17:382017/03/30 19:07
char portraitNeo Pluehcorp logo2016/11/16 17:402017/03/30 19:51
char portraitBurt Soloistcorp logo2016/11/16 17:452016/11/23 08:16
char portraitHawolex Niminencorp logo2016/11/16 17:462017/01/24 23:53
char portraitAndrew Hickory Jacksoncorp logo2016/11/16 17:472017/02/20 03:13
char portraitDolo Haklarcorp logo2016/11/16 17:492017/01/24 23:46
char portraitTobias Kelcorp logo2016/11/16 17:502016/11/17 17:01
char portraitSpeezilla Dallocortcorp logo2016/11/16 17:532017/01/24 23:48
char portraitGlenn Dutchidacorp logo2016/11/16 17:532016/11/30 21:04
char portraitCheeksaw Souliciouscorp logo2016/11/16 17:572016/11/30 20:40
char portraitPhovios Oramaracorp logo2016/11/16 18:002016/11/27 18:14
char portraitMkloomiscorp logo2016/11/16 18:012016/12/09 05:18
char portraitCatfish Atramcorp logo2016/11/16 18:052016/12/09 16:07
char portraitpilot538 Pappottecorp logo2016/11/16 18:122016/11/17 07:55
char portraitSmartzGut101corp logo2016/11/16 18:132017/01/24 23:53
char portraitAllison Wonderlandcorp logo2016/11/16 18:152016/12/09 05:24
char portraitLaureanacorp logo2016/11/16 18:162016/11/19 07:00
char portraitLex A138 Vercorp logo2016/11/16 18:172016/12/09 05:23
char portraitKouShuureicorp logo2016/11/16 18:172017/01/15 11:48
char portraitSurge Askirascorp logo2016/11/16 18:172017/01/24 23:48
char portraitTrojanHorse Sancorp logo2016/11/16 18:172016/12/09 05:22
char portraitTuppence Middletoncorp logo2016/11/16 18:172017/05/02 02:32
char portraitToad T8rheadcorp logo2016/11/16 18:202016/12/09 05:23
char portraitSinshiro Kashadacorp logo2016/11/16 18:252016/11/24 02:22
char portraitCharles Caarmichaelcorp logo2016/11/16 18:262016/12/09 05:22

Page: 1 2 ... 9 ... 16 17
Current Members Leave History

Any pilots, corporations, or alliances that relate to actual people or entities are purely coincidental.
10q/23ms Disclaimer A / C Brought to you by: Squizz Caphinator Forum Thread
EVE Online and the EVE logo are the registered trademarks of CCP hf. All rights are reserved worldwide. All other trademarks are the property of their respective owners. EVE Online, the EVE logo, EVE and all associated logos and designs are the intellectual property of CCP hf. All artwork, screenshots, characters, vehicles, storylines, world facts or other recognizable features of the intellectual property relating to these trademarks are likewise the intellectual property of CCP hf. CCP hf. has granted permission to evewho.com to use EVE Online and all associated logos and designs for promotional and information purposes on its website but does not endorse, and is not in any way affiliated with, evewho.com. CCP is in no way responsible for the content on or functioning of this website, nor can it be liable for any damage arising from the use of this website.